Simultaneous Nadir Overpasses (SNOs) Predictions

Prediction of SNOs between NOAA-19 and TERRA Satellite Orbit:

Table of predicted SNOs for the next 14.0 days since TLE Epoch: 10/19/2019
Index Date (NOAA-19) Time (NOAA-19) Lat,Lon (NOAA-19) SZA (NOAA-19 ) Date (TERRA) Time (TERRA) Lat,Lon (TERRA) SZA (TERRA ) Distance(km) Time Diff (sec)
1 10/19/2019 08:50:38 -78.87,-108.54 90.00 10/19/2019 08:51:32 -78.87,-108.62 89.98 1.94 54
2 10/19/2019 09:41:34 78.84, 58.91 90.01 10/19/2019 09:40:59 78.83, 58.78 89.98 2.79 35
3 10/21/2019 14:24:05 79.14, -14.00 90.88 10/21/2019 14:25:12 79.02, -11.20 91.03 60.47 67
4 10/21/2019 15:15:01 -78.87, 155.43 89.18 10/21/2019 15:14:43 -78.87, 155.53 89.18 2.15 18
5 10/23/2019 20:48:19 78.86,-107.78 91.63 10/23/2019 20:48:27 78.86,-107.95 91.61 3.75 8
6 10/26/2019 02:21:47 -78.90, -11.34 87.59 10/26/2019 02:22:12 -78.88, -11.29 87.60 3.11 25
7 10/26/2019 03:12:41 78.85, 156.35 92.42 10/26/2019 03:11:38 78.87, 156.30 92.41 2.48 63
8 10/28/2019 07:55:05 78.92, 85.29 93.19 10/28/2019 07:55:56 78.88, 85.32 93.18 4.09 51
9 10/28/2019 08:46:09 -78.88,-107.15 86.82 10/28/2019 08:45:24 -78.86,-107.19 86.85 2.18 45
10 10/30/2019 13:28:32 -78.91,-177.91 86.07 10/30/2019 13:29:41 -78.93,-177.87 86.03 2.17 69
11 10/30/2019 14:19:27 78.90, -10.57 93.94 10/30/2019 14:19:08 78.87, -10.54 93.91 3.17 19
12 11/01/2019 19:52:54 -78.89, 86.26 85.34 11/01/2019 19:52:54 -78.89, 86.11 85.35 3.21 0




NCC Satellite Simultaneous Nadir Overpasses (SNOs) Prediction Service
